TimeEST,TemperatureF,Dew PointF,Humidity,Sea Level PressureIn,VisibilityMPH,Wind Direction,Wind SpeedMPH,Gust SpeedMPH,PrecipitationIn,Events,Conditions,WindDirDegrees,DateUTC
12:54 AM,35.1,21.0,57,29.79,10.0,Calm,Calm,-,N/A,,Overcast,0,2011-11-12 05:54:00
1:54 AM,36.0,21.0,55,29.83,10.0,WSW,3.5,-,N/A,,Overcast,250,2011-11-12 06:54:00
2:54 AM,36.0,21.9,57,29.85,10.0,WNW,4.6,-,N/A,,Overcast,290,2011-11-12 07:54:00
3:54 AM,35.1,21.9,59,29.88,10.0,WSW,4.6,-,N/A,,Overcast,240,2011-11-12 08:54:00
5:54 AM,34.0,21.9,61,29.93,10.0,Calm,Calm,-,N/A,,Overcast,0,2011-11-12 10:54:00
7:54 AM,37.9,23.0,55,29.95,10.0,SW,9.2,17.3,N/A,,Clear,230,2011-11-12 12:54:00
8:54 AM,39.9,24.1,53,29.96,10.0,WSW,10.4,-,N/A,,Clear,240,2011-11-12 13:54:00
9:54 AM,39.9,27.0,60,29.97,10.0,SSW,12.7,18.4,N/A,,Clear,200,2011-11-12 14:54:00
10:54 AM,43.0,28.0,56,29.96,10.0,Variable,6.9,21.9,N/A,,Clear,0,2011-11-12 15:54:00
11:54 AM,44.1,27.0,51,29.94,10.0,SSW,8.1,18.4,N/A,,Clear,210,2011-11-12 16:54:00
12:54 PM,45.0,28.0,52,29.92,10.0,SSW,11.5,20.7,N/A,,Overcast,210,2011-11-12 17:54:00
1:54 PM,46.9,28.0,48,29.91,10.0,SSW,11.5,16.1,N/A,,Overcast,210,2011-11-12 18:54:00
2:54 PM,48.0,27.0,44,29.91,10.0,South,9.2,17.3,N/A,,Mostly Cloudy,190,2011-11-12 19:54:00
3:54 PM,46.9,25.0,42,29.93,10.0,Calm,Calm,-,N/A,,Overcast,0,2011-11-12 20:54:00
4:54 PM,46.0,27.0,47,29.94,10.0,Calm,Calm,-,N/A,,Overcast,0,2011-11-12 21:54:00
5:54 PM,46.0,28.0,50,29.96,10.0,Calm,Calm,-,N/A,,Overcast,0,2011-11-12 22:54:00
6:54 PM,45.0,28.0,52,29.96,10.0,SSW,5.8,-,N/A,,Clear,210,2011-11-12 23:54:00
7:54 PM,43.0,28.9,58,29.99,10.0,WSW,4.6,-,N/A,,Clear,240,2011-11-13 00:54:00
9:54 PM,37.9,28.9,70,30.03,10.0,Calm,Calm,-,N/A,,Clear,0,2011-11-13 02:54:00
10:54 PM,34.0,28.9,82,30.05,10.0,Calm,Calm,-,N/A,,Clear,0,2011-11-13 03:54:00
11:54 PM,30.0,28.9,96,30.07,10.0,Calm,Calm,-,N/A,,Clear,0,2011-11-13 04:54:00